NOAA NWS Hourly Roundups by Site

Regional Weather Roundup for Omaha, NE

To Select Another Site Choose from List

Select Site:  

000
ASUS43 KOAX 200810
RWRNE

WEATHER ROUNDUP FOR NEBRASKA
NATIONAL WEATHER SERVICE OMAHA NE
200 AM CST THU JAN 20 2022

NOTES: SATELLITE DATA IS BEING USED TO AUGMENT CLOUD COVER ABOVE
       12000 FEET.
       "FAIR" INDICATES FEW OR NO CLOUDS BELOW 12,000 FEET WITH NO
       SIGNIFICANT WEATHER AND/OR OBSTRUCTIONS TO VISIBILITY.


NEZ001>004-019>022-054>056-200900-
NEBRASKA PANHANDLE

CITY           SKY/WX    TMP DP  RH WIND       PRES   REMARKS
SCOTTSBLUFF    CLEAR      6   1  80 E8        30.39F WCI  -7
ALLIANCE       CLEAR     -3  -7  82 S3        30.40F
CHADRON        PTCLDY    -6 -12  75 CALM      30.44F
GORDON         PTCLDY    -6 -11  78 CALM      30.43F
KIMBALL        CLOUDY    11   9  89 S9        30.32F WCI  -1
SIDNEY         CLEAR      2   0  91 SE6       30.37F WCI  -9
$$

NEZ057>060-069>072-079>082-200900-
SOUTHWEST NEBRASKA

CITY           SKY/WX    TMP DP  RH WIND       PRES   REMARKS
NORTH PLATTE   CLEAR     -1  -7  75 CALM      30.55S
IMPERIAL       CLOUDY     6  -2  69 E3        30.50S
LEXINGTON      CLEAR     -3  -9  75 N6        30.59S WCI -15
MCCOOK         MOCLDY     7  -3  64 NE6       30.57S WCI  -3
OGALLALA       MOCLDY     4  -2  77 CALM      30.50S
$$

NEZ005>010-023>029-035>040-094-200900-
NORTH CENTRAL NEBRASKA

CITY           SKY/WX    TMP DP  RH WIND       PRES   REMARKS
VALENTINE      PTCLDY   N/A N/A N/A SW3       30.55F
AINSWORTH      PTCLDY    -7 -13  76 CALM      30.56S
BROKEN BOW     PTCLDY   -11 -17  75 CALM      30.57S
O`NEILL        PTCLDY    -6 -13  72 NW5       30.61F WCI -17
ORD            PTCLDY    -7 -13  75 CALM      30.61S
THEDFORD       PTCLDY    -8 -13  78 W3        30.53F
$$

NEZ041-046>049-061>064-073>077-083>087-200900-
SOUTH CENTRAL NEBRASKA

CITY           SKY/WX    TMP DP  RH WIND       PRES   REMARKS
GRAND ISLAND   CLEAR     -2 -10  69 NW8       30.64S WCI -17
AURORA         CLEAR     -4 -11  72 NW7       30.64S WCI -18
HASTINGS       CLEAR     -4 -11  72 NW7       30.63S WCI -18
HEBRON         CLEAR      3  -4  72 NW3       30.67R
HOLDREGE       CLEAR      2  -6  69 CALM      30.60S
KEARNEY        CLEAR     -1  -8  72 NW5       30.63R WCI -11
YORK           CLEAR     -4  -9  77 NW6       30.64S WCI -16
$$

NEZ011>018-030>034-042>045-200900-
NORTHEAST NEBRASKA

CITY           SKY/WX    TMP DP  RH WIND       PRES   REMARKS
NORFOLK        PTCLDY    -2 -10  69 NW5       30.65S WCI -12
ALBION         PTCLDY    -5 -10  77 NW3       30.63S
BLAIR          CLEAR      2  -7  66 N10       30.64S WCI -13
COLUMBUS       CLEAR     -2  -8  76 NW9       30.67S WCI -18
FREMONT        CLEAR      0  -7  71 NW3       30.67S
TEKAMAH        CLEAR      2  -7  66 NW9       30.69S WCI -13
WAYNE          CLEAR     -6 -12  75 CALM      30.66S
$$

NEZ050>053-065>068-078-088>093-200900-
SOUTHEAST NEBRASKA

CITY           SKY/WX    TMP DP  RH WIND       PRES   REMARKS
LINCOLN        CLEAR      4  -7  60 NW3       30.69S
OMAHA EPPLEY   CLEAR      2  -5  72 N8        30.68S WCI -12
BEATRICE       CLEAR     -1  -6  78 NW6       30.66S WCI -13
FALLS CITY     CLEAR      6  -2  69 N6        30.67S WCI  -4
NEBRASKA CITY  CLEAR      4  -4  69 N5        30.66S WCI  -6
PLATTSMOUTH    CLEAR      5  -4  64 NW7       30.66S WCI  -7
$$

NEZ044-045-051>053-067-200900-
OMAHA AREA

CITY           SKY/WX    TMP DP  RH WIND       PRES   REMARKS
OMAHA EPPLEY   CLEAR      2  -5  72 N8        30.68S WCI -12
BLAIR          CLEAR      2  -7  66 N10       30.64S WCI -13
FREMONT        CLEAR      0  -7  71 NW3       30.67S
MILLARD        CLEAR      6  -6  57 N6        30.68S WCI  -4
OFFUTT AFB     CLEAR      6  -8  53 N8        30.70R WCI  -7
PLATTSMOUTH    CLEAR      5  -4  64 NW7       30.66S WCI  -7
WAHOO          MOCLDY     1  -6  73 N9        30.67S WCI -14
$$


 

View Past Reports for Omaha, NE.

Products Courtesy of NOAA-NWS
NWS Information Parsing Script by Ken True at Saratoga Weather - Script by SE Lincoln Weather.